Location: Oakhurst
(33.6448°N, 111.9543°W)
Time: 03:35:11
(UTC+00:00)

DUCHIFAT 1 - Pass Details

Date: 04 August 2021
Orbit: 585 x 602 km, 98.0° (Epoch: 24 September)

Event Time Altitude Azimuth Distance (km) Brightness Sun altitude
Rises 09:28:30 0° 8° (N) 2,847 ? -32.3°
Reaches altitude 10° 09:30:41 10° 6° (N) 1,943 ? -32.1°
Enters shadow 09:32:24 24° 1° (N) 1,264 ? -31.9°
